Overview Statistics Trail Chart Weather Telemetry Raw packets
 

This is the latest recevied weather packets stored in our database for station/object KA1AL. If no packets are shown the sender has not sent any weather packets the latest 10 day(s).

<< 42 43 44 45 46 47 48 >>
Time Temp. Humidity Pressure Rain* Wind** Luminosity Snow
1777400896 16.67° C 49% 1020.9 hPa 0 mm - 612 W/m² -
1777400593 16.11° C 47% 1020.9 hPa 0 mm - 608 W/m² -
1777400291 16.11° C 50% 1020.8 hPa 0 mm - 609 W/m² -
1777399986 16.67° C 49% 1020.9 hPa 0 mm - 618 W/m² -
1777399683 16.11° C 51% 1021.1 hPa 0 mm - 611 W/m² -
1777399380 16.11° C 55% 1021.2 hPa 0 mm - 626 W/m² -
1777399078 16.11° C 51% 1021.2 hPa 0 mm - 635 W/m² -
1777398775 16.11° C 54% 1021 hPa 0 mm - 645 W/m² -
1777398472 16.67° C 50% 1021.4 hPa 0 mm - 646 W/m² -
1777398168 16.11° C 53% 1021.2 hPa 0 mm - 647 W/m² -
1777397865 15.56° C 51% 1021.4 hPa 0 mm - 650 W/m² -
1777397560 15.56° C 52% 1021.3 hPa 0 mm - 652 W/m² -
1777397257 15.56° C 51% 1021.3 hPa 0 mm - 651 W/m² -
1777396954 15.56° C 51% 1021.6 hPa 0 mm - 645 W/m² -
1777396651 15.56° C 55% 1021.5 hPa 0 mm - 649 W/m² -
1777396347 15.56° C 53% 1021.8 hPa 0 mm - 653 W/m² -
1777396045 15° C 55% 1021.7 hPa 0 mm - 649 W/m² -
1777395745 15° C 53% 1021.9 hPa 0 mm - 659 W/m² -
1777395441 15° C 56% 1021.8 hPa 0 mm - 656 W/m² -
1777395139 15° C 51% 1021.7 hPa 0 mm - 660 W/m² -
1777394835 15° C 55% 1021.8 hPa 0 mm - 662 W/m² -
1777394531 15.56° C 56% 1022 hPa 0 mm - 664 W/m² -
1777394228 15.56° C 57% 1022 hPa 0 mm - 662 W/m² -
1777393924 15° C 57% 1022 hPa 0 mm - 658 W/m² -
1777393623 15° C 57% 1022.1 hPa 0 mm - 652 W/m² -

* Rain latest hour (hover to see other rain measurements)
** Current wind speed in m/s (hover to see current wind gust speed)